SCD 1

Last updated on Fri Sep 19 2025 00:02:29 GMT+0000 (Coordinated Universal Time)

1 22490U 93009B 25260.98575618 .00000485 00000+0 81944-4 0 9998 2 22490 24.9691 88.0243 0042157 137.1918 356.1841 14.45911724721673
UTC large
Height (km)
Speed (km/s)
/
Latitude / Longitude
Inclination (degrees)
Orbital Period (minutes)
Azimuth
Elevation
Range (km)
Doppler Factor

Next 0 passes for location: London (51.5072 / 0.1276)

Sorry there are no passes over London.